EDT,Max TemperatureF,Mean TemperatureF,Min TemperatureF,Max Dew PointF,MeanDew PointF,Min DewpointF,Max Humidity, Mean Humidity, Min Humidity, Max Sea Level PressureIn, Mean Sea Level PressureIn, Min Sea Level PressureIn, Max VisibilityMiles, Mean VisibilityMiles, Min VisibilityMiles, Max Wind SpeedMPH, Mean Wind SpeedMPH, Max Gust SpeedMPH,PrecipitationIn, CloudCover, Events, WindDirDegrees
2012-9-1,93,83,73,72,70,64,93,65,36,30.12,30.07,30.02,10,10,10,14,3,18,T,1,Rain,335
2012-9-2,92,82,72,73,70,64,93,70,46,30.07,30.00,29.93,10,9,2,15,3,22,0.43,4,Rain-Thunderstorm,75
2012-9-3,85,78,71,76,71,68,93,78,63,30.07,30.01,29.96,10,9,2,8,2,13,0.15,5,Rain-Thunderstorm,101
2012-9-4,88,80,72,74,71,69,94,77,59,30.03,29.97,29.90,10,8,2,13,2,18,0.13,6,Rain,198
2012-9-5,88,81,73,73,71,69,93,74,55,29.95,29.89,29.82,10,8,5,16,5,22,T,5,Rain,217
2012-9-6,90,79,68,75,71,67,93,77,61,29.95,29.90,29.84,10,8,2,20,4,24,0.32,3,Rain-Thunderstorm,87
2012-9-7,90,78,66,72,67,64,100,72,44,30.01,29.94,29.85,10,4,0,7,1,10,0.00,2,Fog,147
2012-9-8,90,78,66,72,67,61,93,74,55,29.86,29.78,29.66,10,8,2,22,5,74,0.04,3,Rain,224
2012-9-9,82,72,62,55,52,47,72,52,31,29.99,29.90,29.83,10,10,10,16,7,21,0.00,4,,340
2012-9-10,82,67,51,55,50,43,96,61,26,30.17,30.08,29.99,10,10,10,16,4,20,0.00,0,,359
2012-9-11,81,65,49,54,50,46,89,61,33,30.32,30.26,30.18,10,10,10,9,2,23,0.00,0,,118
2012-9-12,82,66,50,54,52,48,93,67,36,30.37,30.32,30.27,10,9,6,9,2,15,0.00,0,,92
2012-9-13,82,65,48,55,50,45,96,63,30,30.37,30.31,30.25,10,10,7,10,2,15,0.00,0,,90
2012-9-14,84,70,55,63,58,53,93,70,46,30.28,30.21,30.14,10,10,10,8,2,,0.00,2,,199
2012-9-15,82,69,56,60,57,55,93,68,42,30.20,30.15,30.11,10,10,7,14,4,21,0.00,1,,84
2012-9-16,67,63,58,59,57,55,90,82,73,30.21,30.16,30.09,10,8,2,8,1,10,0.87,8,Rain,23
2012-9-17,75,68,61,68,63,57,97,85,73,30.13,30.04,29.91,10,8,1,7,2,12,0.35,7,Rain,67
2012-9-18,77,72,67,72,68,64,93,85,76,29.94,29.77,29.70,10,9,0,24,6,33,0.98,7,Rain,208
2012-9-19,73,64,54,62,54,50,93,71,49,30.14,30.03,29.85,10,10,10,10,4,15,0.00,6,,2
2012-9-20,78,64,49,58,53,48,93,70,46,30.17,30.12,30.04,10,7,0,8,1,12,0.00,0,Fog,138
2012-9-21,83,68,53,61,57,51,93,70,47,30.10,30.03,29.97,10,8,2,10,3,14,0.00,0,,212
2012-9-22,86,74,61,66,61,55,90,67,44,29.98,29.92,29.84,10,10,9,20,6,23,T,2,,228
2012-9-23,75,62,49,53,43,32,80,51,21,30.15,30.08,29.98,10,10,10,14,4,17,0.00,2,,351
2012-9-24,73,59,45,45,41,38,93,61,29,30.25,30.19,30.15,10,10,10,13,4,16,0.00,0,,346
2012-9-25,77,59,41,56,49,39,96,70,43,30.24,30.19,30.12,10,10,8,15,4,22,0.00,0,,216
2012-9-26,84,69,53,63,58,51,93,70,47,30.19,30.16,30.12,10,10,5,10,4,14,0.00,0,,209
2012-9-27,89,72,55,63,58,54,97,68,39,30.19,30.14,30.06,10,6,1,8,2,13,0.00,0,,205
2012-9-28,84,72,59,66,61,56,93,71,48,30.09,30.04,29.99,10,8,1,30,3,41,0.36,3,Rain-Thunderstorm,253
2012-9-29,69,64,58,65,60,55,93,89,84,30.04,29.97,29.90,10,7,2,14,3,17,0.24,8,Rain,81
2012-9-30,72,63,53,59,54,50,93,71,49,29.95,29.92,29.84,10,7,1,7,1,10,0.00,4,,272